Flag for Colombia Weather past 2 weeks in Medellin, Colombia

Now
59 °F

Partly cloudy.


Feels Like: 60 °F
Forecast: 66 / 82 °F
Wind: 3 mph from West

Location: Rionegro / J. M. Cordova

Current Time: Jul 5, 2015 at 12:36:35 AM

Latest Report: Jul 5, 2015 at 12:00 AM


Visibility: N/A

Pressure: 30.28 "Hg (25.41 "Hg at 1479m altitude)

Humidity: 94%

Dew point: 57 °F

Location of MedellinLocation

Historic Weather in Medellin — Graph

°F

Medellin temperature yesterday

Maximum temperature yesterday: 86 °F (at 3:00 PM)
Minimum temperature yesterday: 54 °F (at 5:00 AM)
Average temperature yesterday: 64 °F

Past Weeks' High & Low Weather Summary

 TemperatureHumidityPressure
High86 °F (Jul 4, 3:00 PM)100% (Jun 21, 4:00 AM)30.36 "Hg (Jun 21, 4:00 AM)
Low50 °F (Jun 25, 3:00 AM)31% (Jun 30, 2:00 PM)29.91 "Hg (Jun 23, 3:00 PM)
Average64 °F71%30.28 "Hg
* Reported Jun 19 11:00 PM — Jul 4 11:00 PM, Medellin, Weather by CustomWeather, © 2015

Note: Actual official high and low records may vary slightly from our data, if they occured in-between our weather recording intervals... More about our weather records

Advertising

Medellin weather history for previous 24 hours

 ConditionsComfort  
Time TempWeatherWind HumidityBarometerVisibility
11:00 PM
Sat, Jul 4
59 °FPartly cloudy.3 mph94%30.29 "HgN/A
10:00 PM61 °FPassing clouds.No wind88%30.29 "HgN/A
9:00 PM61 °FPassing clouds.3 mph77%30.27 "HgN/A
8:00 PM63 °FPassing clouds.5 mph68%30.25 "HgN/A
7:00 PM68 °FPassing clouds.5 mph56%30.22 "HgN/A
6:00 PM70 °FOvercast.7 mph50%30.20 "HgN/A
5:00 PM72 °FOvercast.7 mph47%30.20 "HgN/A
4:00 PM73 °FOvercast.10 mph38%30.19 "HgN/A
3:00 PM86 °FPartly sunny.13 mph31%30.01 "HgN/A
2:00 PM75 °FPartly sunny.12 mph39%30.22 "HgN/A
1:00 PM73 °FBroken clouds.9 mph53%30.25 "HgN/A
12:00 PM72 °FBroken clouds.12 mph47%30.25 "HgN/A
11:00 AM70 °FPartly sunny.No wind60%30.25 "HgN/A
10:00 AM68 °FPartly sunny.No wind60%30.26 "HgN/A
9:00 AM64 °FPartly sunny.No wind73%30.27 "HgN/A
8:00 AM61 °FPartly sunny.No wind77%30.27 "HgN/A
7:00 AM55 °FPartly sunny.No wind88%30.24 "HgN/A
6:00 AM54 °FPartly sunny.No wind94%30.22 "HgN/A
5:00 AM54 °FPassing clouds.No wind94%30.22 "HgN/A
4:00 AM55 °FPassing clouds.No wind88%30.22 "HgN/A
3:00 AM55 °FPassing clouds.No wind94%30.22 "HgN/A
2:00 AM55 °FOvercast.No wind88%30.23 "HgN/A
1:00 AM57 °FPassing clouds.No wind88%30.24 "HgN/A
12:00 AM59 °FPassing clouds.2 mph88%30.26 "HgN/A
Weather by CustomWeather, © 2015

See weather overviewHow to use our weather pages